Terminal Aerodrome Forecast
Issued by NWS Dodge City, KS

Home | Current Version | Previous Version | Text Only | Print | Product List | Glossary On
Versions: 1 2 3 4 5 6 7 8 9 10 11 12 13 14 15 16 17 18
000
FTUS43 KDDC 211800 AAA
TAFDDC
TAF AMD
KDDC 211859Z 2119/2218 02015G25KT P6SM SCT040
     FM220000 05010KT P6SM SKC=

USA.gov is the U.S. government's official web portal to all federal, state and local government web resources and services.